ECMWFFLT1_925_spd_132.txt.gz
Wind_Speed
28 27 27 27 25 24 23 23 24 24 23 23 22 21 21 20 20 19 17 16 15 16 15 16 18 18 18 17 15 15 17 19 19 19 19 18 18 16 13 11 8 8 10 10 10 8 5 2 4 7 8 8 7 6 3 3 4 4 4 5 6 7 7
28 28 27 27 26 26 25 24 24 24 23 22 21 20 20 19 19 18 17 15 14 15 16 16 17 17 17 17 16 15 16 18 19 18 19 20 19 16 14 12 10 11 10 8 11 9 5 3 3 4 8 9 9 9 7 4 4 1 2 3 5 5 9
27 27 27 28 28 27 26 26 25 24 23 23 22 20 19 18 18 17 16 15 15 16 16 17 17 17 16 16 16 15 15 17 18 18 19 20 18 16 16 15 14 15 11 7 9 10 5 4 3 4 9 10 8 8 8 5 3 2 3 1 4 8 11
29 29 29 29 29 29 29 28 26 25 23 22 21 20 18 18 17 15 14 14 16 17 16 16 16 16 16 16 15 16 16 17 18 18 18 17 17 17 16 16 16 15 11 8 10 11 7 5 5 4 8 11 8 5 6 5 1 3 5 7 9 11 13
33 32 32 32 32 31 31 29 27 25 23 21 20 19 18 17 16 16 15 16 17 18 16 15 16 17 16 16 16 16 17 17 18 18 17 16 17 17 16 15 14 13 10 10 11 10 9 10 11 7 6 8 6 4 7 8 7 10 12 12 11 12 13
34 34 34 34 33 33 33 31 28 26 24 22 20 18 17 16 16 17 18 18 18 18 17 17 17 18 18 17 17 17 18 19 18 17 17 17 17 17 16 14 13 11 10 10 10 9 10 13 14 9 6 5 4 6 8 9 11 11 10 11 10 10 11
35 35 34 34 34 33 33 32 30 27 25 23 21 19 17 17 17 18 19 18 16 16 17 18 18 18 19 19 19 19 19 19 18 18 17 17 17 16 15 14 13 12 11 10 9 10 10 11 12 11 8 5 6 8 8 6 9 7 6 8 9 9 10
35 35 34 34 34 34 33 32 29 27 26 23 21 19 18 18 18 19 19 18 16 17 17 18 18 19 20 20 20 20 20 19 19 18 18 17 17 16 15 15 14 13 12 11 10 10 10 11 11 13 12 8 6 5 4 5 6 7 6 6 7 10 12
34 34 33 33 34 34 33 31 29 27 25 23 20 19 19 19 19 18 19 18 18 18 17 18 20 21 22 22 22 21 20 20 19 19 18 18 17 17 16 15 15 15 13 12 11 10 10 10 9 10 12 13 9 3 2 2 3 6 8 7 7 10 12
34 34 34 33 33 32 32 31 29 27 24 22 21 21 21 21 20 19 19 19 20 19 19 20 22 23 23 22 22 22 21 20 20 19 19 18 17 17 16 15 15 16 15 13 13 11 10 10 9 8 7 10 12 8 3 1 0 2 7 8 8 9 11
35 34 34 33 33 32 31 29 28 26 24 23 22 22 22 22 21 21 20 21 21 21 21 22 22 23 23 22 22 22 22 21 21 20 18 18 17 16 16 16 15 16 15 14 14 12 11 11 10 9 7 6 8 8 6 4 2 2 6 8 10 11 11
34 34 33 33 32 32 31 29 28 27 25 24 24 24 24 23 22 22 22 23 23 23 23 23 23 23 22 22 23 23 22 22 21 20 18 17 17 16 16 16 16 16 15 14 14 12 11 11 10 10 9 8 7 7 7 6 3 2 6 9 10 10 11
34 33 33 33 32 31 30 29 29 28 27 26 26 26 25 25 24 24 24 24 24 24 24 23 23 23 22 22 23 24 23 22 21 20 19 17 16 16 17 17 16 16 15 15 15 13 12 11 10 10 9 9 9 7 7 8 5 2 6 9 9 10 11
34 33 33 33 32 31 30 30 30 30 29 28 28 27 27 26 26 25 25 26 25 25 25 24 23 23 22 23 23 23 23 22 21 20 19 17 16 16 17 17 17 16 15 15 14 12 12 11 10 9 8 7 8 8 7 8 7 4 5 8 9 10 11
33 33 33 32 32 31 31 32 32 32 31 30 29 28 28 27 26 26 26 26 26 25 24 24 23 23 23 24 23 23 23 23 22 21 20 18 18 17 17 17 17 15 14 14 12 12 12 11 9 8 7 6 7 8 7 7 6 5 5 7 9 10 11
33 32 33 33 32 32 32 33 33 33 32 31 30 28 28 28 27 26 26 27 26 26 24 24 24 24 24 24 24 23 23 22 22 21 20 20 19 18 17 16 16 14 14 13 13 12 12 11 8 7 8 7 7 7 6 5 6 5 5 7 9 10 12
33 33 33 33 33 33 33 33 33 33 32 31 30 29 28 28 27 27 27 28 27 26 25 25 24 24 24 24 24 23 23 22 21 21 20 19 18 17 17 17 15 14 13 13 12 11 11 10 8 7 7 7 6 5 5 4 5 5 5 6 8 10 11
33 34 34 33 33 33 33 33 33 33 32 31 30 29 29 28 28 28 28 29 28 27 26 25 25 25 24 24 23 22 22 21 20 20 19 18 17 17 16 16 15 14 13 13 12 11 10 9 8 6 5 5 4 3 4 3 4 5 5 6 7 8 10
34 34 34 33 33 34 34 34 34 34 33 32 30 30 30 29 29 29 29 29 28 27 26 25 25 24 24 24 22 21 21 21 20 19 18 17 16 15 14 15 16 14 13 13 13 12 11 9 7 6 5 4 2 2 3 3 3 3 4 6 6 8 10
34 34 33 33 34 35 35 36 36 35 33 32 31 30 30 30 30 29 29 29 28 27 27 26 24 24 24 24 22 21 21 20 19 19 17 16 15 13 13 14 15 13 12 12 12 11 10 9 7 5 3 3 2 2 3 2 2 3 5 6 7 8 9
34 34 33 33 34 35 36 36 36 35 33 32 31 30 30 30 30 29 28 29 28 28 27 25 25 24 24 23 23 22 21 20 20 19 17 16 15 14 13 14 14 13 11 10 9 8 9 8 7 4 2 2 2 2 3 3 4 6 7 8 8 9 9
34 34 34 34 35 36 36 36 36 34 33 31 30 30 30 30 29 29 29 28 28 28 27 26 25 25 25 24 24 23 22 21 21 19 18 17 16 15 14 14 13 11 10 9 7 6 8 8 6 3 4 4 4 5 5 6 6 7 9 9 9 9 8
34 34 35 35 35 36 36 35 35 33 31 30 29 29 29 29 29 29 29 28 28 28 27 26 25 25 25 24 24 24 22 21 21 21 20 20 18 16 15 13 12 10 8 7 6 6 8 8 5 4 6 7 7 7 7 7 7 8 9 9 8 8 8
34 35 35 35 36 36 35 35 34 32 30 30 30 30 30 30 30 29 29 29 29 29 28 26 26 25 24 24 24 24 23 22 22 22 21 20 19 17 15 12 10 8 7 6 5 6 8 8 7 7 8 8 7 7 6 6 6 6 7 7 7 7 8
34 34 34 35 35 34 34 35 33 30 30 31 30 30 31 31 30 30 29 29 29 29 28 26 26 25 24 25 24 23 22 22 23 22 20 19 17 15 13 10 7 6 6 7 7 8 10 10 9 8 7 7 6 5 3 3 4 4 5 5 7 8 9
34 34 34 34 34 34 34 33 31 30 31 31 30 31 32 32 31 30 30 30 29 29 27 26 26 25 25 25 24 22 22 23 23 22 19 17 15 13 10 7 5 6 8 9 9 9 11 11 10 9 8 7 6 3 1 5 6 7 6 6 8 10 10
35 34 33 34 34 34 34 32 30 30 31 31 31 32 33 32 31 31 30 30 29 29 28 27 26 26 26 25 24 23 23 23 22 21 19 17 14 12 9 5 4 7 10 9 8 9 11 11 9 9 8 7 5 3 2 6 8 10 9 7 8 10 10
35 34 33 33 33 33 33 32 31 31 32 32 33 33 33 32 31 31 30 29 29 29 29 28 27 26 26 25 24 24 24 23 22 21 20 18 17 16 14 10 9 12 13 11 10 13 14 12 10 10 8 6 4 2 4 7 9 9 8 7 7 9 11
34 33 33 32 32 33 32 32 32 32 32 32 33 33 33 32 32 31 30 29 30 30 30 29 28 27 26 26 25 25 24 23 24 23 21 20 21 20 18 16 15 17 16 14 15 16 16 14 13 12 9 5 3 3 6 7 7 7 6 5 6 9 11
34 33 33 32 31 31 31 31 32 33 32 32 32 33 33 32 32 31 30 30 31 32 31 29 28 28 27 27 27 25 23 24 24 23 22 23 23 21 19 18 18 19 18 17 16 16 14 13 13 12 8 5 6 7 7 6 5 5 4 5 7 8 9
36 35 33 33 32 31 31 32 33 34 34 33 33 33 33 33 32 32 32 31 32 32 31 30 29 28 28 30 28 24 24 25 24 23 23 24 22 20 20 21 21 21 19 16 15 15 13 12 13 12 8 6 8 9 8 7 6 5 5 6 7 6 6
39 37 35 35 35 34 33 33 34 34 34 33 33 33 33 33 32 32 32 31 31 31 31 30 31 29 30 32 28 23 25 27 25 24 25 24 23 22 23 23 23 22 18 13 12 13 15 15 14 12 8 8 10 12 10 9 8 7 7 7 5 3 4
40 40 40 39 37 35 33 33 33 33 33 32 33 33 33 33 33 32 31 29 30 31 31 31 32 31 31 31 26 23 27 28 27 27 26 25 26 26 25 25 24 21 18 13 12 13 16 18 16 13 11 10 12 13 12 11 10 9 8 6 4 4 5
39 39 39 38 35 33 33 33 33 33 32 32 32 33 33 32 32 31 30 29 30 30 31 33 33 33 32 30 26 25 28 28 28 29 26 25 26 27 26 27 25 22 19 17 16 15 17 18 17 15 14 12 12 13 12 12 11 10 9 6 5 5 5
36 35 34 34 33 32 31 32 33 34 33 33 33 33 31 30 29 29 29 29 29 31 32 33 33 33 33 30 27 27 29 28 27 28 27 26 26 26 27 27 25 24 22 20 18 17 18 19 19 18 16 13 12 12 12 12 11 10 9 8 7 7 6
35 34 33 33 33 31 30 31 32 33 33 32 30 29 28 27 26 26 26 27 28 30 31 32 32 32 32 30 28 28 29 28 27 27 28 28 27 26 26 25 25 25 23 21 20 19 19 20 20 20 18 15 13 11 11 11 11 10 9 9 8 9 7
34 33 33 33 33 31 31 31 31 31 31 31 29 27 26 26 25 26 26 26 27 28 29 30 31 31 30 30 29 29 29 29 28 27 28 28 26 24 24 24 24 25 23 21 20 19 21 22 22 20 19 16 14 12 11 11 11 10 10 10 10 10 9

ECMWFFLT1_925_spd_135.txt.gz
Wind_Speed
28 26 26 26 27 26 24 23 22 21 21 21 22 22 21 21 21 21 19 17 16 14 14 14 14 14 15 16 17 19 20 22 22 22 22 21 19 19 15 11 7 5 8 11 11 8 5 2 6 9 11 10 8 6 5 4 4 4 2 3 5 7 9
29 27 27 27 26 26 25 24 23 23 23 22 22 22 22 21 20 19 18 17 15 15 14 14 14 14 15 17 17 19 20 21 21 20 21 21 20 19 17 13 9 7 10 10 11 10 4 3 4 4 9 10 8 8 6 4 4 4 2 2 6 8 10
28 27 27 27 27 26 25 25 24 25 24 23 23 23 22 21 20 18 17 17 16 16 15 15 15 15 16 16 17 18 19 21 22 21 20 19 19 19 17 16 13 12 11 8 10 10 4 4 3 3 9 10 8 8 8 6 4 2 1 6 9 9 10
29 28 27 27 27 26 26 26 26 26 25 25 24 23 22 21 20 19 18 17 16 16 16 16 16 17 17 17 17 17 18 19 21 22 21 19 19 18 17 17 17 16 14 11 14 15 9 4 4 4 8 11 8 6 5 5 3 6 9 11 10 9 10
32 30 29 29 29 28 28 27 27 27 26 25 24 23 23 22 20 20 18 17 16 16 17 17 16 16 17 18 18 18 18 19 21 22 22 20 19 19 18 17 18 18 17 15 15 18 15 10 8 7 7 9 6 4 9 11 11 12 12 10 9 10 10
33 32 31 31 31 31 30 30 29 29 28 27 26 25 24 23 22 21 19 18 17 17 18 17 16 17 18 18 18 18 18 19 20 21 22 21 20 20 20 19 17 17 17 13 12 16 16 13 11 9 7 7 6 8 13 14 14 12 10 10 9 9 10
33 33 33 32 32 32 32 33 32 32 32 30 29 27 25 24 22 21 19 18 17 18 19 19 18 19 19 19 18 17 17 18 19 19 20 19 19 18 19 19 17 16 14 12 11 14 14 13 15 15 10 5 7 10 9 9 11 8 8 9 9 9 9
34 33 33 33 33 33 33 34 34 33 32 31 29 27 25 24 22 20 19 18 18 19 20 19 19 20 20 19 19 18 17 17 18 18 17 17 17 17 17 17 16 14 12 11 11 11 12 12 15 19 18 9 5 5 4 6 7 5 6 7 8 9 9
34 33 33 32 33 34 34 34 34 32 31 30 28 26 25 23 21 20 18 18 19 20 20 19 19 20 19 19 19 18 17 18 18 17 17 16 16 16 16 15 15 13 11 10 10 10 11 12 12 18 22 18 11 3 2 3 3 3 5 5 5 8 8
34 34 33 33 33 33 33 33 33 32 30 29 27 25 23 21 20 19 18 19 20 19 19 18 18 19 19 18 19 18 18 18 18 17 17 16 16 16 15 14 13 12 11 10 10 9 10 11 12 15 17 19 17 10 3 3 3 2 4 4 5 7 7
35 34 34 33 33 33 32 32 32 32 30 28 27 25 23 21 20 19 19 19 20 20 19 18 18 18 18 18 18 18 19 19 19 18 17 17 17 16 15 14 13 12 11 10 10 9 9 10 11 13 13 14 16 13 9 6 2 2 5 5 6 6 6
34 34 33 33 33 34 33 33 33 32 30 28 26 24 23 21 20 20 20 20 20 20 18 18 18 17 17 18 19 19 19 19 19 19 18 17 17 17 16 15 14 13 12 12 11 10 9 9 9 11 11 10 10 11 13 10 4 3 6 6 7 7 6
34 34 34 34 34 34 34 33 33 32 30 28 26 24 23 22 21 21 21 21 21 20 19 19 18 17 18 19 19 19 20 20 20 19 19 18 17 17 17 17 16 15 14 13 12 11 10 9 9 9 9 10 10 8 10 11 7 6 7 6 7 7 6
34 34 34 34 34 33 33 33 33 32 30 28 26 25 23 22 22 22 21 22 21 21 21 21 20 19 19 19 19 20 21 21 20 20 19 19 18 18 18 18 17 16 15 14 13 13 12 10 9 9 9 10 11 10 9 12 12 9 7 7 7 6 5
33 33 33 33 33 33 33 33 33 31 30 28 27 25 24 24 23 23 22 22 22 22 22 22 21 21 21 21 21 22 22 22 21 21 20 19 19 18 19 19 19 18 17 16 15 13 12 11 9 9 10 10 12 12 10 14 14 10 7 7 7 5 4
34 33 33 33 33 33 33 33 33 32 30 29 27 26 25 25 24 24 23 23 23 23 23 23 23 22 22 22 23 23 23 23 22 21 21 21 20 20 20 21 20 19 18 17 16 14 13 11 9 9 10 9 10 11 10 12 12 10 8 7 6 4 5
34 34 34 34 33 33 33 33 32 32 31 29 28 27 26 25 25 25 24 24 24 24 24 24 24 23 23 23 23 24 24 23 22 22 22 21 21 22 22 22 21 19 17 17 16 15 13 11 9 9 10 8 8 9 8 8 9 9 9 7 5 5 5
35 35 35 34 33 33 33 33 32 31 31 30 29 28 27 27 26 26 26 26 25 25 25 24 24 24 23 23 23 24 24 23 23 22 21 21 22 22 22 21 20 19 17 17 17 16 13 12 10 9 9 8 7 7 7 7 7 7 8 8 6 5 6
35 35 35 34 33 33 33 33 32 32 31 30 30 29 29 28 27 27 27 26 26 25 25 25 24 24 23 23 24 24 24 23 23 22 21 21 21 21 20 19 19 18 17 16 16 15 13 11 10 9 9 8 6 6 6 6 6 5 6 8 7 6 7
34 34 34 34 33 33 33 33 32 32 31 31 31 31 30 29 28 27 27 26 26 25 25 25 24 24 24 24 24 24 23 23 22 22 21 21 20 19 18 18 17 16 16 15 14 14 12 11 9 8 8 7 6 6 7 6 5 6 7 8 8 8 7
32 33 33 32 33 33 33 33 32 32 31 31 31 31 31 30 29 28 27 26 25 25 26 25 25 25 24 24 24 23 23 23 22 22 21 19 18 17 17 16 16 15 14 13 12 11 11 10 8 7 6 6 7 7 7 7 8 9 9 9 9 8 7
31 31 32 32 32 33 33 33 33 32 32 31 31 31 31 30 29 28 27 26 26 26 26 26 26 25 25 24 24 23 23 22 22 22 20 19 17 16 16 16 15 13 12 10 9 8 7 7 6 5 6 7 8 8 10 10 10 10 10 9 9 7 6
31 31 32 32 32 33 33 33 33 33 32 31 32 32 30 29 29 28 28 27 26 27 27 27 26 25 24 24 23 23 22 22 22 21 20 20 18 16 15 15 14 12 10 8 6 5 5 6 4 4 5 7 8 10 11 12 11 10 10 9 8 6 5
32 32 33 33 33 33 33 33 33 33 33 32 32 32 31 30 29 28 27 27 27 28 28 27 25 24 23 23 23 23 23 23 23 22 21 20 19 17 16 16 14 11 10 8 7 7 8 8 7 6 8 9 9 9 10 10 9 8 8 7 6 5 5
33 33 34 33 33 34 34 33 33 33 33 32 32 32 31 30 29 28 27 28 28 28 28 26 25 24 23 23 23 23 24 24 24 23 22 21 20 19 18 17 14 13 12 12 13 14 14 14 13 13 13 13 12 10 8 7 6 5 4 4 4 5 5
34 34 34 34 33 33 33 34 34 33 33 32 32 32 31 30 29 28 28 28 28 28 27 25 25 24 23 24 24 24 24 25 25 24 23 22 22 21 20 19 18 17 17 17 16 17 17 17 17 16 15 14 13 11 8 7 6 4 4 2 3 4 4
34 34 34 34 33 33 33 34 34 33 33 32 32 32 31 30 29 29 28 28 28 27 26 25 25 25 24 24 24 24 24 25 25 25 24 24 24 24 23 22 21 20 19 19 19 18 18 18 18 17 16 14 13 11 8 7 6 6 6 4 2 4 3
34 34 34 33 33 34 34 33 33 32 33 33 33 32 31 30 30 29 28 28 28 27 26 26 25 25 25 24 24 24 24 25 25 25 25 26 26 25 24 22 20 19 20 21 21 20 20 20 19 17 15 13 12 10 8 7 7 7 6 5 3 3 1
35 34 34 33 33 34 34 33 33 33 33 33 33 32 31 30 30 29 28 28 28 28 27 26 26 26 25 25 24 25 25 26 26 26 28 28 26 24 22 20 19 20 21 21 21 22 21 20 18 16 14 12 11 9 8 7 7 7 6 5 3 2 1
35 35 35 34 34 33 34 33 33 33 32 32 31 31 30 30 30 29 29 29 29 29 28 27 27 26 26 25 25 27 28 27 27 28 29 28 25 23 21 21 21 21 21 22 22 22 21 19 17 15 13 12 10 9 8 8 8 7 6 6 4 3 3
36 35 35 36 35 34 34 34 34 34 33 32 31 31 30 30 29 29 29 30 31 31 29 28 27 27 27 26 26 28 29 29 28 29 29 27 24 23 22 22 23 21 21 22 23 21 19 18 16 16 14 11 10 10 10 10 10 9 7 6 5 5 5
38 37 36 36 36 36 36 35 35 35 34 33 31 30 30 30 30 30 31 31 31 31 30 28 28 28 28 27 28 29 30 30 29 29 29 27 25 24 23 23 23 21 20 21 21 18 17 16 16 15 12 10 10 11 12 12 12 10 9 7 7 6 5
39 38 37 36 37 37 36 35 34 35 34 32 31 30 31 32 31 32 32 31 31 31 30 29 28 29 29 28 29 30 31 31 30 29 28 28 26 25 24 24 23 22 21 21 19 15 15 16 16 14 12 11 11 11 11 12 13 12 10 9 8 7 6
38 39 40 39 36 35 36 36 36 36 34 31 30 30 32 31 30 30 31 31 31 31 31 29 28 29 30 29 30 32 32 32 31 29 28 29 27 26 26 24 23 23 23 23 20 15 14 16 16 16 15 13 11 10 10 12 13 13 12 11 10 9 7
39 39 37 36 34 33 34 35 35 35 33 31 30 30 31 30 28 28 29 30 30 30 30 29 28 29 31 31 31 32 32 32 31 28 28 29 28 28 27 24 23 24 24 25 23 19 16 15 16 18 18 16 13 12 11 11 13 13 14 13 12 11 10
36 35 33 33 34 33 32 32 32 32 32 31 30 28 28 28 27 26 27 27 27 27 28 29 27 28 31 32 31 31 31 32 30 27 27 29 28 29 29 25 22 24 26 26 25 23 19 18 18 18 18 17 16 14 12 12 13 14 14 13 13 12 11
33 31 31 31 31 31 31 30 29 28 28 28 27 25 26 26 26 25 24 24 23 24 26 28 27 28 30 31 31 31 32 31 29 26 27 28 28 28 29 25 21 23 27 26 25 23 21 20 19 18 18 18 18 16 14 13 13 14 14 14 14 13 12

ECMWFFLT1_925_spd_138.txt.gz
Wind_Speed
28 26 27 27 27 26 25 23 23 22 20 19 18 18 19 18 19 21 22 21 19 17 16 15 16 16 17 18 18 20 20 22 23 24 27 27 23 21 19 14 9 6 7 10 9 7 4 2 5 7 11 13 11 10 8 7 8 6 5 6 6 5 4
28 27 27 26 26 26 25 24 23 22 21 20 19 19 19 19 20 21 22 22 20 18 17 16 16 16 17 17 18 19 20 22 23 24 25 27 26 23 20 17 11 8 9 9 10 9 4 3 3 4 9 12 10 10 8 7 7 6 7 8 6 5 4
27 27 27 26 26 26 25 24 23 22 21 21 20 20 21 21 21 20 21 22 20 19 18 17 17 16 15 16 17 18 20 21 23 24 25 24 25 24 21 20 15 12 10 7 9 10 5 3 3 4 10 12 9 7 7 7 6 6 9 10 7 5 4
29 29 28 27 27 26 26 25 24 22 22 22 22 22 22 21 22 22 22 21 20 19 18 17 16 15 14 15 16 18 20 21 22 24 24 22 21 22 22 21 19 16 13 10 12 14 10 5 3 5 10 12 8 6 6 5 6 10 12 9 7 5 4
32 32 31 29 28 27 27 26 24 23 23 23 23 23 22 22 23 23 23 21 20 19 18 17 16 15 14 15 16 17 19 21 22 23 24 23 21 21 21 21 19 18 17 15 14 15 15 12 8 6 9 10 6 5 9 10 11 13 11 8 6 5 4
34 34 33 31 30 29 28 28 27 26 25 25 25 24 23 23 23 23 22 21 20 19 18 17 16 16 15 15 16 18 19 19 21 21 23 23 21 21 20 20 19 18 17 16 15 15 16 15 10 7 8 8 6 9 12 13 13 12 9 7 5 4 4
35 35 34 32 31 30 30 30 29 29 28 27 26 25 25 24 24 22 21 20 19 19 17 16 15 15 15 15 16 18 17 18 18 18 20 21 21 20 19 19 19 18 17 16 16 15 15 15 13 12 11 6 7 11 9 9 12 10 7 7 5 4 4
36 35 34 33 32 31 31 31 30 30 29 28 27 26 25 25 23 22 21 20 19 18 17 16 15 15 15 15 17 17 16 16 16 16 18 18 19 19 18 18 18 17 16 16 16 14 14 16 16 17 16 9 5 5 4 6 8 8 9 8 6 5 4
36 35 34 33 32 32 31 30 30 30 29 28 27 27 26 25 23 22 21 19 18 17 16 16 15 15 15 14 15 16 15 15 15 15 16 17 17 16 16 17 16 15 15 14 14 13 13 15 16 17 21 18 10 3 1 4 4 5 10 9 5 5 4
36 35 35 33 32 31 30 30 30 29 29 28 28 28 27 26 24 23 21 19 18 17 16 16 16 15 15 14 15 16 15 14 14 14 15 15 14 14 14 14 13 13 13 12 13 13 13 14 15 16 21 24 19 9 3 3 4 5 9 9 5 5 5
36 35 35 34 32 31 30 30 30 29 29 29 28 28 28 26 25 23 21 20 18 18 18 18 17 16 16 16 16 16 15 14 14 13 14 13 13 13 13 13 12 12 12 11 12 12 12 13 13 15 19 23 22 16 10 6 4 5 9 8 6 6 5
35 35 34 33 33 32 31 30 30 29 29 29 29 29 28 27 26 24 22 20 19 19 19 19 18 16 15 16 16 16 16 15 14 14 14 14 14 13 13 13 12 11 11 11 10 10 10 11 11 13 17 19 19 18 16 11 4 6 10 8 7 8 6
35 35 34 34 33 33 32 31 30 29 30 30 30 29 29 28 26 25 22 21 20 20 20 20 17 14 14 15 15 16 16 15 15 15 15 14 14 13 13 13 12 11 11 10 10 9 9 8 9 11 13 15 15 15 16 14 8 7 11 9 8 9 6
35 35 34 34 34 32 32 31 30 30 30 30 30 30 29 28 26 24 22 21 21 21 21 20 17 14 15 16 15 16 16 16 16 16 15 15 14 13 13 13 12 12 11 11 10 9 9 8 8 9 9 10 12 12 14 15 12 11 10 9 9 9 5
35 35 34 34 33 33 32 31 30 30 30 31 31 30 29 27 25 24 22 21 21 21 21 19 16 16 18 17 17 17 17 17 17 17 16 16 15 14 14 13 13 13 12 11 11 10 9 8 7 8 8 8 10 12 13 15 16 14 11 10 10 8 5
34 34 34 34 34 33 32 32 31 31 31 31 31 30 29 27 25 24 22 22 21 21 21 19 16 17 18 17 17 17 17 17 17 16 16 16 16 15 15 14 14 14 13 12 12 11 9 8 7 6 7 7 8 9 10 13 15 14 13 12 10 7 6
34 34 34 34 34 33 32 32 31 31 31 31 31 30 28 27 25 24 23 22 22 21 21 19 17 17 17 16 16 16 16 16 16 15 15 16 16 16 16 16 16 16 15 14 14 13 10 8 7 6 6 6 6 7 9 11 12 13 14 12 8 7 7
35 35 34 34 34 33 33 32 31 31 31 32 32 30 29 27 26 24 23 23 22 21 20 19 18 17 17 16 15 15 15 15 15 15 15 16 16 17 16 17 17 17 17 16 15 14 12 10 8 6 6 6 6 7 9 9 8 10 12 12 9 8 8
35 35 34 33 33 33 33 32 31 31 32 32 32 31 29 28 26 24 23 23 22 21 20 19 18 18 18 17 16 15 15 15 15 15 16 16 16 16 16 17 18 19 18 18 17 15 13 11 9 8 7 6 6 7 8 9 8 9 11 12 11 10 9
36 35 34 33 33 33 33 32 31 31 32 32 32 31 29 28 25 24 23 23 22 20 19 18 18 18 18 18 17 17 16 16 16 17 17 17 16 16 16 17 18 18 17 17 16 15 13 11 9 8 7 7 8 8 9 10 10 11 12 13 13 12 11
35 35 33 33 33 33 32 32 31 31 31 31 31 30 29 26 25 24 23 23 21 20 19 19 20 20 19 19 18 17 17 17 18 18 17 17 16 16 17 17 17 17 15 14 14 13 12 11 11 11 10 10 11 12 13 13 14 15 15 16 16 14 13
34 34 33 33 33 33 32 32 32 31 31 30 29 28 26 25 24 24 24 23 21 20 20 20 20 20 20 19 19 18 18 18 18 19 18 18 17 17 17 17 17 16 14 14 13 13 12 13 13 13 13 14 15 15 15 15 16 17 17 17 16 15 13
33 33 33 33 32 32 32 32 32 31 30 29 28 27 25 24 25 25 25 24 22 21 21 21 20 20 20 19 19 19 19 19 19 19 19 20 20 19 18 17 17 16 15 15 15 15 16 15 15 15 14 15 16 16 16 17 17 18 18 17 16 15 14
34 34 34 33 32 32 32 32 32 31 30 29 28 27 25 25 25 26 25 24 23 22 22 21 20 20 19 19 19 19 19 20 20 20 20 21 21 20 19 18 18 17 18 18 18 18 18 16 15 14 14 14 16 16 16 17 17 17 16 15 14 13 13
34 34 34 32 32 32 32 32 32 31 30 29 28 27 26 26 26 26 25 24 23 22 22 21 20 19 19 19 19 19 20 20 21 21 21 21 21 21 20 19 19 20 20 19 19 19 17 14 14 14 13 13 14 14 14 14 15 14 14 13 12 12 11
34 35 34 33 32 32 32 32 32 31 30 29 29 29 27 26 26 26 26 24 23 22 21 20 20 19 20 20 19 19 20 21 21 21 21 22 21 21 21 21 21 22 20 19 20 19 16 13 13 13 13 13 13 13 13 12 10 10 10 9 9 9 10
34 34 35 34 32 32 33 33 32 31 30 29 29 30 28 26 26 27 25 24 23 22 21 20 19 20 20 20 20 20 20 21 21 21 21 22 22 22 22 22 23 22 21 21 21 18 15 14 15 14 15 15 14 13 12 11 10 9 9 8 7 8 8
34 33 34 34 34 34 34 33 32 31 31 31 31 31 30 28 28 27 25 24 23 22 20 19 19 20 20 20 20 20 21 21 21 21 22 22 22 23 23 22 23 22 21 21 20 17 15 16 16 17 17 16 14 13 11 10 10 9 9 9 8 7 7
34 33 34 34 34 34 34 33 32 32 31 31 31 31 30 29 29 28 26 25 24 22 21 20 20 20 21 21 21 21 21 21 22 22 23 23 23 24 23 22 23 23 20 18 18 17 17 17 18 19 17 15 14 13 12 11 10 10 9 9 9 8 7
34 34 34 34 33 34 34 33 32 32 31 30 30 30 30 29 29 29 27 26 24 23 22 21 21 21 21 22 22 22 22 23 22 23 24 24 24 25 23 22 23 23 19 17 16 17 18 18 20 20 18 15 15 15 14 13 11 10 10 9 9 9 8
35 34 34 34 33 33 33 33 33 33 33 31 31 31 31 30 30 29 27 25 24 23 23 22 21 21 22 22 23 23 24 23 23 23 24 24 25 25 24 23 25 23 18 16 15 16 17 19 20 20 18 16 15 15 15 14 13 11 10 9 9 10 9
36 35 34 33 34 34 34 34 34 34 34 34 34 33 31 30 31 29 27 25 24 24 23 22 22 22 23 23 23 24 25 24 23 24 24 24 25 26 25 25 26 23 18 15 15 15 16 19 21 20 18 17 16 17 16 15 14 12 10 10 10 9 9
36 36 34 33 34 35 35 34 34 34 33 33 33 32 31 31 31 30 28 26 25 26 25 23 23 23 24 24 25 26 26 25 24 25 25 25 26 27 27 27 26 23 18 17 17 16 15 18 20 20 19 19 18 17 14 12 13 13 12 11 11 10 10
36 35 34 35 35 34 34 35 35 34 33 32 31 31 31 31 31 29 28 27 27 27 26 24 23 23 24 25 26 28 28 26 25 25 26 27 27 27 28 27 27 23 20 19 19 16 15 16 18 19 20 19 17 15 13 11 10 11 13 13 13 12 11
35 35 35 37 36 34 33 33 32 33 34 33 30 28 28 28 28 27 27 28 28 28 26 24 23 23 24 25 27 28 29 27 25 25 27 28 28 27 27 26 25 23 21 20 19 17 16 16 17 18 18 17 15 15 15 14 11 11 13 14 15 15 14
35 35 35 36 36 34 33 31 30 30 30 28 25 25 26 27 26 25 25 26 26 26 26 25 23 22 23 25 28 29 29 27 26 26 27 28 27 27 26 24 24 23 21 20 18 17 18 18 18 17 16 15 15 15 16 16 14 13 13 15 16 16 15
35 35 36 36 34 32 31 30 30 29 28 27 26 27 29 29 27 25 24 24 24 25 25 25 24 22 23 25 28 29 30 29 27 26 27 27 26 26 23 21 21 21 22 21 17 16 17 20 20 19 17 15 15 16 17 17 16 15 15 16 16 17 15

ECMWFFLT1_925_spd_141.txt.gz
Wind_Speed
22 20 18 17 16 15 18 21 21 22 21 17 17 17 16 18 19 18 18 19 21 23 22 20 20 21 23 23 22 23 24 23 24 24 25 26 21 19 21 15 8 6 7 8 6 5 3 4 7 8 10 12 12 12 11 9 9 9 9 8 7 6 5
22 20 17 17 16 15 18 21 21 22 21 18 18 18 18 19 19 19 19 19 22 23 23 21 20 21 22 23 23 24 25 24 24 23 24 27 23 19 21 18 10 6 7 7 7 6 4 3 5 7 10 11 10 12 13 11 10 10 10 9 7 6 5
22 19 18 17 16 16 17 20 21 21 21 21 20 20 20 20 20 20 20 21 22 24 24 22 21 21 21 21 22 22 23 23 24 25 24 25 24 22 21 19 13 9 7 6 6 7 5 4 4 6 11 13 10 10 11 10 9 10 10 10 8 7 6
22 20 21 19 17 17 17 20 22 21 19 20 22 22 21 21 20 21 22 22 23 24 24 22 21 20 19 20 21 21 22 22 23 24 24 23 23 24 23 20 16 13 11 8 8 10 8 6 5 6 10 12 10 8 9 10 9 10 10 9 9 8 6
23 22 22 21 19 19 19 21 22 19 17 19 21 23 23 22 21 21 22 23 24 25 24 23 21 19 18 19 20 21 21 21 21 22 24 24 23 23 23 23 20 17 14 12 10 10 11 9 7 6 7 9 8 6 8 10 9 9 9 8 8 8 6
25 24 23 21 20 19 19 22 24 21 19 20 23 25 25 24 22 22 23 23 25 26 25 24 21 18 19 18 17 18 18 19 20 20 21 23 23 22 22 23 22 20 17 16 13 11 11 10 9 6 5 7 7 6 9 9 9 9 8 7 8 7 6
25 24 24 23 20 18 18 22 25 23 20 23 27 28 26 24 23 22 23 23 24 25 25 23 20 18 19 17 15 14 16 17 18 18 19 21 22 22 21 21 22 22 20 19 17 14 13 11 10 7 6 5 5 7 9 9 10 9 7 7 8 7 6
26 25 26 25 21 20 19 20 23 21 20 25 28 28 26 25 24 23 23 23 23 24 24 22 20 19 18 16 15 13 13 15 15 16 17 19 20 20 20 20 20 21 21 19 18 16 14 12 11 10 10 7 4 6 7 8 10 10 8 8 7 6 6
31 31 30 28 23 21 20 21 22 21 22 28 28 26 26 25 25 24 24 24 25 25 23 19 17 16 15 15 15 14 13 13 13 14 15 16 18 19 20 20 20 20 20 18 17 17 16 14 12 12 13 11 7 6 6 6 8 9 9 9 7 7 6
33 34 32 29 23 20 20 20 21 22 25 29 27 26 27 25 25 25 25 26 25 24 22 19 16 14 14 15 14 13 13 12 12 13 14 15 16 17 18 18 19 19 18 16 16 16 16 15 14 14 14 13 11 7 5 6 7 9 11 10 7 7 7
30 33 35 33 25 20 20 20 21 23 27 29 27 26 27 26 26 26 25 25 24 22 20 18 16 14 14 15 14 12 12 12 12 14 14 15 15 15 16 17 17 16 15 14 14 14 14 14 14 14 15 14 14 11 8 6 6 8 11 10 7 7 8
27 27 31 34 27 21 21 22 23 27 29 29 27 27 27 27 27 26 26 25 23 21 19 18 16 15 15 16 14 13 13 13 13 14 14 14 14 14 15 15 14 13 12 13 13 12 12 12 12 13 14 15 16 15 11 8 6 6 9 9 8 8 8
29 26 26 30 27 22 22 24 26 29 30 29 28 28 28 28 28 27 26 25 23 22 20 18 17 15 16 16 15 14 14 14 14 14 14 14 14 14 14 13 13 12 12 12 12 10 10 10 10 11 12 12 14 15 12 9 7 5 8 9 8 9 8
30 27 25 27 26 23 26 30 31 30 30 29 29 29 29 29 28 28 26 25 23 22 20 19 17 16 17 16 15 15 14 14 14 14 14 14 14 14 14 13 13 13 12 11 10 8 8 7 7 8 9 9 11 14 11 9 6 5 9 9 9 9 9
29 27 25 25 24 25 31 34 33 31 30 30 29 29 29 29 29 28 27 25 24 22 20 19 17 17 17 16 15 15 15 15 14 15 15 15 16 15 14 14 13 13 12 10 9 7 6 6 4 4 6 7 8 12 12 10 7 7 9 10 10 10 10
28 27 26 25 24 28 34 35 32 32 31 30 30 29 29 30 30 29 27 26 24 22 20 19 18 17 16 15 15 15 15 15 14 15 16 16 16 16 15 14 14 13 12 10 9 8 7 6 5 4 5 6 6 10 13 12 9 9 10 11 12 11 11
29 29 27 25 24 27 34 35 32 32 31 30 31 30 30 30 30 29 28 26 24 22 21 19 18 16 15 14 14 15 14 14 14 15 16 16 16 16 15 15 14 13 12 11 10 10 8 7 6 5 5 6 7 9 12 13 12 12 12 11 12 12 11
30 29 27 25 24 26 32 35 33 32 31 31 31 30 30 31 31 30 28 26 24 22 21 20 18 16 14 13 14 14 13 13 13 14 15 15 15 16 15 15 15 14 13 13 12 11 10 8 7 6 6 6 7 9 10 13 14 14 13 11 12 12 12
30 29 27 26 24 24 29 35 34 32 32 31 31 32 32 32 31 30 28 26 24 22 21 19 17 15 14 14 14 14 13 13 14 14 15 15 15 15 15 14 14 14 14 14 14 13 11 10 9 8 8 8 8 9 10 12 14 14 12 11 11 12 14
30 28 26 26 24 23 27 34 34 32 33 32 32 33 33 32 32 30 29 27 24 21 20 18 16 15 15 15 15 15 14 14 14 15 15 15 14 14 14 14 13 14 15 14 14 13 13 12 11 10 9 9 9 10 11 12 12 10 10 11 10 9 11
30 27 25 25 25 23 25 32 35 33 34 33 34 34 33 33 32 31 29 27 24 21 20 18 17 17 16 16 16 16 15 14 15 15 14 14 14 13 13 13 13 14 15 14 14 14 13 13 13 12 10 10 10 10 10 10 9 8 9 9 8 8 8
28 27 27 28 27 24 25 32 35 34 34 34 34 34 33 33 33 32 29 27 24 22 21 20 19 18 17 17 17 16 15 15 14 14 14 14 13 13 13 13 13 14 14 13 13 13 13 13 12 12 12 11 10 9 8 8 8 7 8 8 8 7 8
28 32 33 32 29 27 28 34 35 34 34 35 35 35 34 33 33 31 29 27 25 23 22 21 18 17 17 17 17 17 16 15 14 14 15 15 15 15 14 13 13 13 13 13 13 13 13 13 12 11 11 10 10 9 9 9 8 8 8 8 8 8 8
32 36 35 31 30 32 34 35 35 34 34 34 35 34 34 33 32 30 28 27 25 24 23 21 18 17 17 17 17 17 16 15 15 15 16 16 16 16 15 14 14 14 14 14 14 13 14 14 13 12 11 10 10 11 11 11 10 10 10 8 8 9 9
33 35 34 33 33 34 34 34 34 32 32 34 35 34 34 33 31 30 28 26 25 24 23 20 18 18 18 17 17 16 16 16 16 17 17 17 17 17 17 17 16 16 17 16 15 15 15 15 15 13 11 10 11 12 13 13 12 13 13 11 10 11 10
32 35 36 34 34 34 32 29 27 26 28 34 35 34 34 33 31 30 28 27 26 24 22 20 18 18 18 18 17 16 17 17 17 18 18 18 18 18 18 19 18 19 18 17 17 17 17 16 15 13 12 12 12 12 13 13 13 14 14 13 11 10 10
32 35 36 34 34 36 34 27 23 24 29 35 36 35 35 34 32 31 29 27 26 24 22 20 19 19 19 18 18 18 17 17 17 17 17 17 18 19 20 20 20 20 20 19 20 19 18 17 15 13 13 13 13 12 12 13 12 13 13 12 10 8 9
31 34 37 38 37 37 35 30 27 29 33 36 37 37 37 36 33 31 29 27 27 25 22 20 19 19 20 19 18 18 18 17 17 17 17 17 18 19 21 20 20 19 20 21 21 20 19 17 14 12 13 13 13 14 14 14 14 13 13 12 11 9 9
33 36 38 38 37 36 35 34 34 34 36 37 37 37 37 36 34 31 28 27 26 25 22 20 20 20 20 20 20 20 19 18 17 18 18 18 19 19 20 20 18 18 19 20 20 19 18 17 14 12 12 13 14 15 15 15 15 14 13 13 12 11 10
36 38 37 36 37 35 34 36 36 36 36 36 36 35 35 35 33 30 28 27 26 25 23 21 21 21 20 21 21 21 20 18 18 19 18 18 18 19 19 19 18 18 19 20 19 18 17 16 14 13 14 15 16 16 16 15 14 13 12 12 12 12 12
37 38 37 36 35 31 32 36 37 37 38 36 34 33 34 35 34 30 28 26 25 25 24 23 22 22 22 22 23 22 21 19 19 20 18 18 19 18 18 19 19 18 19 19 19 18 16 14 14 14 16 17 17 17 16 15 14 13 12 12 12 12 12
37 37 37 37 33 28 32 39 39 37 37 35 33 33 34 35 36 33 30 27 25 25 24 24 23 23 23 23 23 23 22 20 19 20 18 18 20 20 19 19 19 20 20 19 19 18 15 13 13 15 16 17 17 18 17 15 14 13 13 12 13 13 12
38 39 39 39 35 31 34 39 39 38 37 35 31 32 34 35 36 34 31 28 27 26 25 24 24 23 23 24 24 24 24 21 20 20 19 19 21 22 21 20 20 21 21 20 20 18 15 12 12 14 17 19 20 19 17 14 13 13 13 13 14 14 13
37 39 39 37 35 35 37 38 38 37 36 32 29 30 34 36 36 34 33 31 29 27 25 24 24 24 24 24 24 25 25 23 21 21 20 20 21 21 21 21 21 21 20 20 21 19 15 12 11 13 16 19 19 17 15 13 12 10 10 12 14 14 14
36 37 37 35 35 36 35 36 38 36 31 29 29 31 33 33 32 32 33 32 31 29 26 24 24 24 24 24 25 25 25 23 22 21 20 20 20 20 20 20 19 19 19 20 21 19 16 13 12 13 15 17 17 16 15 14 12 11 11 12 12 12 13
38 38 37 38 37 32 28 32 35 30 25 25 28 30 30 29 26 26 29 30 28 27 27 25 23 24 24 25 26 25 23 22 21 21 20 19 19 19 18 17 17 17 17 19 20 19 16 14 14 14 14 15 16 16 16 15 15 15 14 13 12 12 12
39 39 38 39 36 30 27 30 29 23 21 24 27 28 27 25 21 19 22 24 23 23 24 24 24 24 24 25 26 25 22 22 22 21 20 18 16 15 15 15 15 15 16 17 18 18 17 16 15 15 15 15 15 16 16 17 17 16 15 14 13 12 12